Home   Weather   Fort Smith   Past weeks

Flag for Canada Past Weather in Fort Smith, Northwest Territories, Canada — Yesterday and Last 2 Weeks

Now
41 °F

Passing clouds.


Feels Like: 41 °F
Forecast: 38 / 56 °F
Wind: No wind

Location: Fort Smith

Current Time: Sep 25, 2016 at 9:53:46 PM

Latest Report: Sep 25, 2016 at 9:00 PM


Visibility: 15 mi

Pressure: 30.10 "Hg

Humidity: 87%

Dew Point: 37 °F

Location of Fort SmithLocation

Past Weather in Fort Smith — Graph

°F

Fort Smith Temperature Yesterday

Maximum temperature yesterday: 59 °F (at 2:00 PM)
Minimum temperature yesterday: 46 °F (at 7:00 AM)
Average temperature yesterday: 52 °F

High & Low Weather Summary for the Past Weeks

 TemperatureHumidityPressure
High68 °F (Sep 17, 4:00 PM)100% (Sep 12, 2:00 AM)30.25 "Hg (Sep 12, 2:00 AM)
Low28 °F (Sep 12, 2:00 AM)38% (Sep 22, 4:00 PM)29.33 "Hg (Sep 17, 9:00 PM)
Average49 °F80%29.84 "Hg
* Reported Sep 10 8:00 PM — Sep 25 8:00 PM, Fort Smith, Weather by CustomWeather, © 2016

Note: Actual official high and low records may vary slightly from our data, if they occured in-between our weather recording intervals... More about our weather records

Advertising

Fort Smith Weather History for the Previous 24 Hours

Scroll right to see more
 ConditionsComfort  
Time TempWeatherWind HumidityBarometerVisibility
8:00 PM
Sun, Sep 25
45 °FPassing clouds.No wind76%30.10 "Hg15 mi
7:00 PM54 °FPassing clouds.3 mph54%30.08 "Hg15 mi
6:00 PM57 °FPassing clouds.6 mph48%30.07 "Hg15 mi
5:00 PM57 °FPassing clouds.8 mph51%30.05 "Hg15 mi
4:00 PM59 °FPassing clouds.12 mph39%30.05 "Hg15 mi
3:00 PM59 °FPassing clouds.14 mph42%30.03 "Hg15 mi
2:00 PM57 °FPassing clouds.14 mph48%30.03 "Hg15 mi
1:00 PM55 °FPassing clouds.16 mph55%30.01 "Hg15 mi
12:00 PM54 °FPassing clouds.16 mph63%30.01 "Hg15 mi
11:00 AM50 °FPassing clouds.15 mph71%30.00 "Hg15 mi
10:00 AM48 °FPassing clouds.15 mph76%29.99 "Hg15 mi
9:00 AM46 °FPassing clouds.10 mph82%29.98 "Hg15 mi
8:00 AM45 °FPassing clouds.12 mph87%29.96 "Hg15 mi
7:00 AM45 °FPassing clouds.12 mph87%29.94 "Hg15 mi
6:00 AM46 °FPassing clouds.12 mph87%29.93 "Hg15 mi
5:00 AM48 °FPassing clouds.9 mph82%29.92 "Hg15 mi
4:00 AM48 °FOvercast.13 mph82%29.91 "Hg15 mi
3:00 AM48 °FMostly cloudy.9 mph82%29.90 "Hg15 mi
2:00 AM48 °FPartly cloudy.8 mph87%29.89 "Hg15 mi
1:00 AM48 °FPassing clouds.10 mph87%29.88 "Hg15 mi
12:00 AM50 °FPartly cloudy.8 mph82%29.86 "Hg15 mi
11:00 PM
Sat, Sep 24
50 °FSprinkles. Mostly cloudy.7 mph82%29.86 "Hg15 mi
10:52 PM50 °FSprinkles. Mostly cloudy.8 mph82%29.86 "Hg15 mi
10:00 PM50 °FMostly cloudy.5 mph88%29.85 "Hg15 mi
9:00 PM50 °FPassing clouds.2 mph88%29.85 "Hg15 mi
Weather by CustomWeather, © 2016

See weather overviewHow to use our weather pages